Portada
METAR-TAF:

METAR-TAF

Aeropuertos :

Aeródromo de Teruel

Teruel, España

latitud: 40-24-43N, longitud: 01-13-03W, altitud: 1030 m

Observación

El informe se hizo hace 23 minutos, a las 09:00 UTC
Viento 8 kt del norte, variando entre noroeste y norte-noreste
Temperatura 10°C
Humedad 71%
Presión 1011 hPa
Visibilidad 10 km o más
lluvia

METAR: LETL 150900Z AUTO 35008KT 320V020 9999 RA NSC 10/05 Q1011

Hora: 11:23 (09:23 UTC)


TAF: falta

Observaciones y pronósticos meteorológicos de más de 4000 aeropuertos (mensajes METAR y TAF).

Los puntos amarillos y rojos representan las estaciones disponibles.

Ponga el ratón en el punto deseado para ver el nombre de la estación.

Haga clic para ver las observaciones y los pronósticos meteorológicos.

Para cambiar el mapa : haga clic en los botones verdes con una cruz de color negro para hacer un zoom, en el botón verde con un guión para alejar o en las flechas verdes para mapas adyacentes.


METAR-TAF: